Hovedside
METAR-TAF:

METAR-TAF

Lufthavner :

Gamvik, Norge

Mehamn lufthavn

breddegrad: 71-02N, lengdegrad: 027-50E, høyde over havet: 1 m

Gjeldene værobservasjon

Denne rapporten ble laget for 3 timer og 50 minutter siden, klokken 03:50 UTC
Vind 14 kt fra Sør
Temperatur 1°C
Luftfuktighet 75%
Trykk 1022 hPa
Sikt 10 km eller mer
Brutte skyer i en høyde av 2400 ft

METAR: ENMH 240350Z 19014KT 9999 BKN024 01/M03 Q1022

Tid: 09:40 (07:40 UTC)


TAF: fraværende

Værobservasjoner og værvarsel for over 4000 flyplasser (METAR- og TAF-rapporter).

Tilgjengelige stasjoner er representert av de røde og gule prikkene på kartet.

Hold musepekeren over prikken for å se navnet på stasjonen.

Klikk så for å se værobservasjoner og -varsler.

For å forandre kartet kan du klikke på den grønne knappen med svart kryss for å zoome inn, på den grønne knappen med strek for å zoome ut, eller på de grønne pilene for å se tilstøtende kart.


METAR-TAF: